User: anonymous   Login
Location: Carrières
(48.9495°N, 2.0407°E)
Time: 23:45:52
(UTC+00:00)
Language:

A-11 Canister half - Orbit

View from above orbital plane
View from above orbital plane
View from above satellite
View from above satellite

Ground track
Ground track

The orbit data is extracted from the following two-line orbital elements,

1 00051U 60009C   24107.35962103  .00000063  00000-0  14365-2 0  9994
2 00051  47.2146 339.4592 0108793   2.3432 357.7847 12.18325974834636
Epoch (UTC): 16 April 2024 08:37:51
Eccentricity: 0.0108793
inclination: 47.2146°
perigee height: 1513 km
apogee height: 1686 km
right ascension of ascending node: 339.4592°
argument of perigee: 2.3432°
revolutions per day: 12.18325974
mean anomaly at epoch: 357.7847°
orbit number at epoch: 83463

The dashed part of the orbit path shows where the satellite is in the earth's shadow,  

DLR